Powrót do katalogu

SL-8 R/B

AktywnyPO
NORAD 14680·ROCKET BODY·🇷🇺 Russia

Wystrzelony Feb 2, 1984 z Plesetsk Cosmodrome

Loading…

Następne Przeloty (najbliższe 24 godziny)

TLE

ŚwieżeSource: Space-Track

Epoka: Sep 14, 2026, 09:15 UTC

1 14680U 84010B   26257.38570675 -.00000033  00000-0 -48202-4 0  9993
2 14680  82.9538  58.4426 0037066 330.9099  51.4839 13.76728735140307

Śledź SL-8 R/B w czasie rzeczywistym z AllMySat

Download on the App Store